Regional Weather Roundup
Issued by NWS

Home | Current Version | Previous Version | Graphics & Text | Print | Product List | Glossary On
Versions: 1 2 3 4 5 6 7 8 9 10 11 12 13 14 15 16 17 18 19 20 21 22 23 24 25 26 27 28 29 30 31 32 33 34 35 36 37 38 39 40 41 42 43 44 45 46 47 48 49 50
955
ASUS45 KTFX 092310
RWRMT
MONTANA REGIONAL WEATHER ROUNDUP
NATIONAL WEATHER SERVICE GREAT FALLS MT
400 PM MST FRI DEC 09 2016

NOTE: "FAIR" INDICATES FEW OR NO CLOUDS BELOW 12000 FEET WITH NO
SIGNIFICANT WEATHER AND/OR OBSTRUCTIONS TO VISIBILITY.

MTZ001>007-043-100000-
WEST OF THE DIVIDE

CITY           SKY/WX    TMP DP  RH WIND       PRES   REMARKS
KALISPELL      LGT SNOW   9   3  77 NE10      30.13F WCI  -5
MISSOULA       LGT SNOW  16  11  80 NW3       30.09F
BUTTE          CLOUDY    18  10  71 CALM      29.95F
MULLAN PASS    FOG       17  15  92 S6        29.84F VSB 3/4 WCI   9
ANACONDA         N/A     10   3  72 CALM      29.98S
DEER LODGE       N/A     12   5  73 CALM      30.02F
EUREKA           N/A      7   0  72 CALM      30.20S
HAMILTON         N/A     16   9  73 CALM      30.05S
LIBBY            N/A     12   7  79 CALM      30.14F
PLAINS           N/A     16   7  67 CALM      30.14F
RONAN            N/A     14   8  77 CALM      30.12F
$$

MTZ008-052>055-100000-
SOUTHWEST MONTANA

CITY           SKY/WX    TMP DP  RH WIND       PRES   REMARKS
BOZEMAN        CLOUDY     9   1  70 CALM      30.07F
DILLON         LGT SNOW  13   7  77 CALM      29.98F VSB 3/4
W YELLOWSTONE  MIX PCPN  25  23  93 S8        29.99F WCI  16
ENNIS          CLOUDY    18  14  86 CALM      30.01S
$$

MTZ009-010-012-014-046-048-049-054-100000-
EAST SLOPES AND CENTRAL MONTANA

CITY           SKY/WX    TMP DP  RH WIND       PRES   REMARKS
CUT BANK       PTCLDY    -1  -7  75 SE9       30.13F WCI -16
GREAT FALLS    CLOUDY     0  -7  72 E5        30.16S
MALMSTROM AFB  CLOUDY    -2  -7  80 NE2       30.19S
HELENA         CLOUDY     6  -3  66 CALM      30.11F
AUGUSTA          N/A     -6 -10  81 SW3       30.07F
BOWMANS CRNR     N/A     -6  -9  84 NE8       30.06F WCI -21
CHOTEAU          N/A      0  -8  71 MISG      30.14S
CONRAD           N/A      2  -4  75 NE7       30.16S WCI -10
FAIRFIELD        N/A     -3  -9  74 E5        30.12F
POWER            N/A     -2  -7  78 E6        30.14S WCI -14
RAYNESFORD     MOCLDY     1  -5  75 E14       30.11F WCI -17
ULM              N/A     -2  -8  74 N8        30.16F WCI -17
$$

MTZ011-013-016-021-045-047-050-051-100000-
NORTH CENTRAL MONTANA

CITY           SKY/WX    TMP DP  RH WIND       PRES   REMARKS
HAVRE          CLOUDY     5  -2  72 E10       30.30F WCI -10
LEWISTOWN      FLURRIES   2  -3  80 E10       30.11F WCI -14
N BAR RANCH    CLOUDY     1  -4  78 S6G12     30.13S WCI -10
CHINOOK          N/A      3  -2  78 E10G16    30.33F WCI -12
DENTON         FLURRIES   4   0  82 MISG      30.13F
FORT BENTON      N/A      5  -2  72 N6        30.26F WCI  -6
GEYSER         MOCLDY     1  -4  80 E7        30.12F WCI -12
GRASS RANGE    FLURRIES   3   0  85 E12       30.13F WCI -13
JUDITH GAP       N/A      0  -3  85 MISG      30.08S
ROY            FLURRIES   3   0  88 MISG      30.18F
STANFORD       FLURRIES  -1  -5  84 SE2       30.09S
WINIFRED       FLURRIES   2  -1  86 MISG      30.16F
$$

MTZ017>020-022>027-061-062-100000-
NORTHEAST MONTANA

CITY           SKY/WX    TMP DP  RH WIND       PRES   REMARKS
GLASGOW        CLOUDY     1  -5  75 E7        30.42F WCI -12
JORDAN           N/A      4  -1  80 E9        30.35F WCI -10
WOLF POINT     CLEAR     -1  -9  68 E9        30.50F WCI -16
PLENTYWOOD       N/A     -6  -9  84 SE5       30.47F
POPLAR           N/A     -2  -9  71 E3        30.51F
SCOBEY           N/A     -1 -13  56 W1        30.38F
$$

MTZ028>42-056>058-100000-
SOUTHCENTRAL AND SOUTHEAST MONTANA

CITY           SKY/WX    TMP DP  RH WIND       PRES   REMARKS
BAKER          CLOUDY     0  -6  76 E9        30.37S WCI -15
BILLINGS       CLOUDY     4  -1  80 NE6       30.20F WCI  -7
LIVINGSTON     CLOUDY     6  -1  73 E9        30.07F WCI  -8
MILES CITY     CLOUDY     4  -3  73 NE9       30.37F WCI -10
BIG TIMBER     MOCLDY     7   0  72 E6        30.12F WCI  -3
EKALAKA          N/A      2  -7  66 E6        30.23  WCI  -9
FORSYTH          N/A      3   0  85 E9        30.33F WCI -11
HARLOWTON      CLOUDY     3  -1  84 E6        30.12S WCI  -8
LAUREL           N/A      7  -3  63 N6        30.15F WCI  -3
$$

REGIONAL REPORTS...DAKOTAS

CITY           SKY/WX    TMP DP  RH WIND       PRES   REMARKS
WILLISTON      CLOUDY    -5 -13  68 NE3       30.53S
MINOT          CLOUDY   -11 -17  75 NW10      30.52F WCI -30
DICKINSON      CLOUDY    -8 -13  78 CALM      30.41S
BEACH            N/A     -8 -11  84 SE3       30.44R
CROSBY           N/A    -11 -17  77 NW5       30.54S
TIOGA            N/A     -9 -13  84 CALM      30.49S
WATFORD CITY     N/A     -6 -11  77 CALM      30.51S
BISMARCK       CLOUDY    -4 -10  75 NW8       30.54S WCI -19
GRAND FORKS    CLEAR     -5 -11  75 W7        30.56S WCI -19
FARGO          CLEAR      4  -4  69 NW9       30.56R WCI -10
BUFFALO SD       N/A      1  -5  75 E9        30.28S WCI -14
RAPID CITY     CLOUDY     2  -4  76 NE3       30.34F
$$

REGIONAL REPORTS...WYOMING/IDAHO/WASHINGTON

CITY           SKY/WX    TMP DP  RH WIND       PRES   REMARKS
GILLETTE       CLOUDY     6   1  80 N5        30.16S
SHERIDAN       CLOUDY    10   0  63 CALM      30.18F
BUFFALO WY     CLOUDY     7  -1  70 E3        30.11S
CODY           CLOUDY     9   1  70 CALM      30.06F
YELLOWSTONE LA   N/A     25  22  88 VRB3      29.98S
IDAHO FALLS    LGT SNOW  24  20  84 CALM      30.07F FOG
SALMON         CLOUDY    18  16  93 CALM      30.06S VSB 1
BOISE          CLOUDY    31  29  92 CALM      30.05F FOG
SPOKANE        LGT SNOW  19  16  88 NE8       30.01F FOG     WCI   9
$$

REGIONAL REPORTS...ALBERTA

CITY           SKY/WX    TMP DP  RH WIND       PRES   REMARKS
EDMONTON       CLEAR     -4 -15  59 S8        30.34F WCI -19
CALGARY        CRYSTALS  -6 -13  71 S14       30.14F WCI -26
LETHBRIDGE     MOCLDY    -4  -8  84 NE8       30.22F WCI -19
MEDICINE HAT   MOCLDY     0  -6  78 E5        30.36F
WATERTON GATE    N/A     -4  -9  77 NE2         N/A
CARDSTON         N/A     -2  -9  71 N2          N/A
MILK RIVER       N/A      0  -6  78 SE7         N/A  WCI -13
ONEFOUR          N/A      0  -6  78 E12         N/A  WCI -18
$$

REGIONAL REPORTS...SASKATCHEWAN

CITY           SKY/WX    TMP DP  RH WIND       PRES   REMARKS
SWIFT CURRENT  CLOUDY    -6  -9  84 E8        30.35F WCI -21
REGINA         PTCLDY    -9 -15  77 W3        30.50F
SASKATOON      CRYSTALS  -6 -15  65 N3        30.54F
ROCKGLEN         N/A     -4  -8  84 S3          N/A
ASSINIBOIA       N/A     -4 -11  71 SE7         N/A  WCI -18
$$




USA.gov is the U.S. government's official web portal to all federal, state and local government web resources and services.